Location: Coed Ely
(51.5661°N, 3.4150°W)
Time: 02:31:08
(UTC+00:00)

IRS-1A Rocket - Pass Details

Date: 28 January 2021
Orbit: 851 x 931 km, 99.2° (Epoch: 28 February)

Event Time Altitude Azimuth Distance (km) Brightness Sun altitude
Exits shadow 19:51:16 75° 89° (E) 964 4.2 -27.1°
Maximum altitude 19:51:27 75° 71° (ENE) 961 4.2 -27.1°
Drops below altitude 10° 19:57:18 10° 347° (NNW) 2,620 6.9 -28.0°
Sets 19:59:43 0° 345° (NNW) 3,556 7.7 -28.4°
